Location: Praha
(50.0830°N, 14.4670°E)
Time: 13:36:59
(UTC+02:00)

ISS - Pass Details

Date: 21 September 2021
Orbit: 419 x 423 km, 51.6° (Epoch: 21 September)

Event Time Altitude Azimuth Distance (km) Brightness Sun altitude
Rises 21:44:00 0° 272° (W) 2,366 0.9 -25.2°
Reaches altitude 10° 21:46:07 10° 275° (W) 1,503 -0.2 -25.5°
Enters shadow 21:47:52 28° 284° (WNW) 829 -1.7 -25.7°
